Weather History for Platteville, WI

Change the Weather History Date:

Friday, April 26, 2013

  Actual Average (KDBQ) Record (KDBQ)
Temperature  
Mean Temperature 54 °F 52 °F  
Max Temperature 68 °F 63 °F 83 °F (1962)
Min Temperature 39 °F 42 °F 28 °F (1956)
Degree Days  
Heating Degree Days 12 13  
Month to date heating degree days 461  
Since 1 July heating degree days 6772  
Cooling Degree Days 0 0  
Month to date cooling degree days 0  
Year to date cooling degree days 0  
Growing Degree Days 4 (Base 50)    
Moisture  
Dew Point 36 °F    
Average Humidity 53    
Maximum Humidity 76    
Minimum Humidity 35    
Precipitation  
Precipitation 0.00 in 0.14 in 1.35 in (1954)
Month to date precipitation 3.12  
Year to date precipitation 8.14  
Snow  
Snow 0.00 in 0.00 in - ()
Month to date snowfall 1.9  
Since 1 July snowfall 41.8  
Snow Depth -    
Sea Level Pressure  
Sea Level Pressure 30.20 in    
Wind  
Wind Speed 14 mph (South)    
Max Wind Speed 28 mph    
Max Gust Speed 37 mph    
Visibility 10 miles    
Events      
T = Trace of Precipitation, MM = Missing Value Source: NWS Daily Summary

Daily Weather History Graph

Daily Weather History Graph

Search for Another Location

Airport:

Trip Planner

Search our weather history database for the weather conditions in past years. The results will help you decide how hot, cold, wet, or windy it might be!

Date:

Astronomy

Apr. 26, 2013 Rise Set
Actual Time 6:02 AM CDT 7:56 PM CDT
Civil Twilight 5:32 AM CDT 8:27 PM CDT
Nautical Twilight 4:55 AM CDT 9:04 PM CDT
Astronomical Twilight 4:15 AM CDT 9:44 PM CDT
Moon 9:21 PM CDT (4/26) 6:29 AM CDT (4/26)
Length of Visible Light 14h 54m
Length of Day
13h 53m
Full, 99% of the Moon is Illuminated
Apr 26
Full
May 2
Last Quarter
May 9
New
May 17
First Quarter
May 24
Full

Hourly Weather History & Observations

Time (CDT) Temp. Windchill Dew Point Humidity Pressure Visibility Wind Dir Wind Speed Gust Speed Precip Events Conditions
12:15 AM 39.2 °F 33.0 °F 24.8 °F 56% 30.25 in 10.0 mi SE 9.2 mph - N/A   Clear
12:35 AM 39.2 °F 33.0 °F 23.0 °F 52% 30.25 in 10.0 mi SE 9.2 mph - N/A   Clear
12:55 AM 39.2 °F 33.0 °F 23.0 °F 52% 30.25 in 10.0 mi SE 9.2 mph - N/A   Clear
1:15 AM 39.2 °F 33.0 °F 23.0 °F 52% 30.24 in 10.0 mi SE 9.2 mph - N/A   Clear
1:35 AM 39.2 °F 33.0 °F 23.0 °F 52% 30.24 in 10.0 mi SE 9.2 mph - N/A   Clear
1:55 AM 39.2 °F 33.0 °F 23.0 °F 52% 30.22 in 10.0 mi SE 9.2 mph - N/A   Clear
2:15 AM 41.0 °F 34.7 °F 23.0 °F 49% 30.22 in 10.0 mi SE 10.4 mph - N/A   Clear
2:35 AM 41.0 °F 34.7 °F 24.8 °F 53% 30.22 in 10.0 mi SE 10.4 mph - N/A   Clear
2:55 AM 41.0 °F 34.3 °F 26.6 °F 57% 30.21 in 10.0 mi SE 11.5 mph - N/A   Clear
3:15 AM 39.2 °F 32.5 °F 26.6 °F 61% 30.22 in 10.0 mi SE 10.4 mph - N/A   Clear
3:35 AM 41.0 °F 35.8 °F 26.6 °F 57% 30.22 in 10.0 mi ESE 8.1 mph - N/A   Mostly Cloudy
3:55 AM 41.0 °F 36.4 °F 28.4 °F 61% 30.24 in 10.0 mi East 6.9 mph - N/A   Mostly Cloudy
4:15 AM 41.0 °F 36.4 °F 30.2 °F 65% 30.24 in 10.0 mi East 6.9 mph - N/A   Overcast
4:35 AM 39.2 °F 33.6 °F 30.2 °F 70% 30.23 in 10.0 mi East 8.1 mph - N/A   Mostly Cloudy
4:55 AM 41.0 °F 35.2 °F 30.2 °F 65% 30.23 in 10.0 mi ESE 9.2 mph - N/A   Scattered Clouds
5:15 AM 41.0 °F 34.7 °F 30.2 °F 65% 30.23 in 10.0 mi SE 10.4 mph - N/A   Scattered Clouds
5:35 AM 39.2 °F 31.6 °F 30.2 °F 70% 30.23 in 10.0 mi SE 12.7 mph - N/A   Clear
5:55 AM 41.0 °F 34.3 °F 30.2 °F 65% 30.22 in 10.0 mi SE 11.5 mph - N/A   Scattered Clouds
6:15 AM 41.0 °F 34.7 °F 30.2 °F 65% 30.21 in 10.0 mi SE 10.4 mph - N/A   Scattered Clouds
6:35 AM 41.0 °F 34.7 °F 30.2 °F 65% 30.21 in 10.0 mi SE 10.4 mph - N/A   Clear
6:55 AM 41.0 °F 34.7 °F 32.0 °F 70% 30.21 in 10.0 mi SE 10.4 mph - N/A   Clear
7:15 AM 42.8 °F 36.2 °F 32.0 °F 66% 30.20 in 10.0 mi SE 12.7 mph - N/A   Scattered Clouds
7:35 AM 44.6 °F 37.8 °F 32.0 °F 61% 30.20 in 10.0 mi SE 15.0 mph - N/A   Mostly Cloudy
7:55 AM 46.4 °F 40.1 °F 32.0 °F 57% 30.21 in 10.0 mi SSE 15.0 mph 20.7 mph N/A   Scattered Clouds
8:15 AM 50.0 °F - 33.8 °F 54% 30.21 in 10.0 mi SSE 15.0 mph 19.6 mph N/A   Scattered Clouds
8:35 AM 50.0 °F - 33.8 °F 54% 30.21 in 10.0 mi South 16.1 mph - N/A   Clear
8:55 AM 51.8 °F - 33.8 °F 50% 30.21 in 10.0 mi South 17.3 mph - N/A   Clear
9:15 AM 51.8 °F - 33.8 °F 50% 30.20 in 10.0 mi South 19.6 mph 25.3 mph N/A   Clear
9:35 AM 53.6 °F - 35.6 °F 51% 30.20 in 10.0 mi South 19.6 mph 25.3 mph N/A   Clear
9:55 AM 53.6 °F - 35.6 °F 51% 30.20 in 10.0 mi South 19.6 mph - N/A   Clear
10:15 AM 55.4 °F - 35.6 °F 47% 30.20 in 10.0 mi South 18.4 mph 25.3 mph N/A   Clear
10:35 AM 57.2 °F - 35.6 °F 44% 30.21 in 10.0 mi South 21.9 mph - N/A   Clear
10:55 AM 59.0 °F - 37.4 °F 45% 30.21 in 10.0 mi SSW 18.4 mph 26.5 mph N/A   Clear
11:15 AM 60.8 °F - 37.4 °F 42% 30.21 in 10.0 mi SSW 20.7 mph 25.3 mph N/A   Clear
11:35 AM 60.8 °F - 39.2 °F 45% 30.21 in 10.0 mi SSW 23.0 mph 26.5 mph N/A   Clear
11:55 AM 62.6 °F - 39.2 °F 42% 30.20 in 10.0 mi SSW 23.0 mph 29.9 mph N/A   Clear
12:15 PM 64.4 °F - 39.2 °F 40% 30.20 in 10.0 mi South 26.5 mph - N/A   Clear
12:35 PM 64.4 °F - 41.0 °F 42% 30.19 in 10.0 mi South 26.5 mph - N/A   Clear
12:55 PM 64.4 °F - 41.0 °F 42% 30.18 in 10.0 mi South 25.3 mph 31.1 mph N/A   Clear
1:15 PM 66.2 °F - 41.0 °F 40% 30.18 in 10.0 mi SSW 27.6 mph 32.2 mph N/A   Clear
1:35 PM 68.0 °F - 41.0 °F 37% 30.18 in 10.0 mi SSW 27.6 mph 34.5 mph N/A   Clear
1:55 PM 68.0 °F - 42.8 °F 40% 30.17 in 10.0 mi SSW 25.3 mph 28.8 mph N/A   Scattered Clouds
2:15 PM 68.0 °F - 42.8 °F 40% 30.16 in 10.0 mi SSW 27.6 mph 31.1 mph N/A   Scattered Clouds
2:35 PM 68.0 °F - 42.8 °F 40% 30.16 in 10.0 mi SSW 21.9 mph 31.1 mph N/A   Scattered Clouds
2:55 PM 68.0 °F - 42.8 °F 40% 30.17 in 10.0 mi SSW 25.3 mph 34.5 mph N/A   Mostly Cloudy
3:15 PM 66.2 °F - 42.8 °F 43% 30.17 in 10.0 mi SSW 24.2 mph 33.4 mph N/A   Overcast
3:35 PM 66.2 °F - 42.8 °F 43% 30.16 in 10.0 mi SSW 24.2 mph 31.1 mph N/A   Overcast
3:55 PM 68.0 °F - 41.0 °F 37% 30.16 in 10.0 mi SSW 27.6 mph 32.2 mph N/A   Scattered Clouds
4:15 PM 68.0 °F - 41.0 °F 37% 30.16 in 10.0 mi SSW 23.0 mph 32.2 mph N/A   Clear
4:35 PM 68.0 °F - 39.2 °F 35% 30.15 in 10.0 mi South 23.0 mph 36.8 mph N/A   Mostly Cloudy
4:55 PM 68.0 °F - 41.0 °F 37% 30.16 in 10.0 mi SSW 19.6 mph 25.3 mph N/A   Mostly Cloudy
5:15 PM 66.2 °F - 41.0 °F 40% 30.16 in 10.0 mi SW 20.7 mph 25.3 mph N/A   Mostly Cloudy
5:35 PM 66.2 °F - 41.0 °F 40% 30.17 in 10.0 mi SW 20.7 mph 27.6 mph N/A   Mostly Cloudy
5:55 PM 64.4 °F - 41.0 °F 42% 30.17 in 10.0 mi SSW 16.1 mph 26.5 mph N/A   Mostly Cloudy
6:15 PM 64.4 °F - 41.0 °F 42% 30.18 in 10.0 mi SSW 18.4 mph 23.0 mph N/A   Scattered Clouds
6:35 PM 62.6 °F - 41.0 °F 45% 30.18 in 10.0 mi SSW 18.4 mph 23.0 mph N/A   Scattered Clouds
6:55 PM 62.6 °F - 41.0 °F 45% 30.18 in 10.0 mi SSW 17.3 mph - N/A   Scattered Clouds
7:15 PM 60.8 °F - 41.0 °F 48% 30.18 in 10.0 mi SSW 18.4 mph - N/A   Scattered Clouds
7:35 PM 60.8 °F - 41.0 °F 48% 30.19 in 10.0 mi SSW 13.8 mph - N/A   Scattered Clouds
7:55 PM 59.0 °F - 42.8 °F 55% 30.19 in 10.0 mi South 11.5 mph - N/A   Mostly Cloudy
8:15 PM 59.0 °F - 42.8 °F 55% 30.20 in 10.0 mi South 11.5 mph - N/A   Overcast
8:35 PM 59.0 °F - 42.8 °F 55% 30.21 in 10.0 mi South 12.7 mph - N/A   Overcast
8:55 PM 59.0 °F - 42.8 °F 55% 30.21 in 10.0 mi South 13.8 mph - N/A   Overcast
9:15 PM 57.2 °F - 44.6 °F 63% 30.21 in 10.0 mi South 19.6 mph - N/A   Mostly Cloudy
9:35 PM 55.4 °F - 44.6 °F 67% 30.22 in 10.0 mi South 17.3 mph - N/A   Scattered Clouds
9:55 PM 55.4 °F - 44.6 °F 67% 30.23 in 10.0 mi South 13.8 mph - N/A   Clear
10:15 PM 53.6 °F - 44.6 °F 72% 30.24 in 10.0 mi South 13.8 mph - N/A   Clear
10:35 PM 53.6 °F - 44.6 °F 72% 30.24 in 10.0 mi South 12.7 mph - N/A   Clear
10:55 PM 53.6 °F - 44.6 °F 72% 30.24 in 10.0 mi South 12.7 mph - N/A   Clear
11:15 PM 51.8 °F - 44.6 °F 76% 30.24 in 10.0 mi South 11.5 mph - N/A   Clear
11:35 PM 51.8 °F - 42.8 °F 71% 30.24 in 10.0 mi South 10.4 mph - N/A   Clear
11:55 PM 51.8 °F - 42.8 °F 71% 30.24 in 10.0 mi South 9.2 mph - N/A   Clear